Location: Bear Valley
(38.4650°N, 120.0390°W)
Time: 19:11:36
(UTC-08:00)

N. Korean satellite - Visible Passes

Search period start: 21 February 2018 00:00
Search period end: 03 March 2018 00:00
Orbit: 459 x 514 km, 97.2° (Epoch: 21 February)

Date Brightness Start Highest point End Pass type
(mag) Time Alt. Az. Time Alt. Az. Time Alt. Az.
21 Feb 10.1 18:57:31 10° WSW 18:59:11 13° W 19:00:50 10° WNW visible
22 Feb 9.1 18:32:21 10° SSW 18:35:17 26° W 18:38:15 10° NW visible
23 Feb 9.4 06:00:29 10° NE 06:03:34 25° E 06:06:40 10° SSE visible
23 Feb 7.3 18:08:05 10° S 18:11:28 57° W 18:14:54 10° NNW visible
24 Feb 10.4 05:37:59 10° ENE 05:39:41 13° E 05:41:24 10° ESE visible
25 Feb 10.1 18:55:50 10° SW 18:57:38 14° W 18:59:27 10° WNW visible
26 Feb 9.0 18:30:45 10° SSW 18:33:44 27° W 18:36:46 10° NW visible
27 Feb 9.5 05:58:59 10° NE 06:02:03 24° E 06:05:08 10° SSE visible
28 Feb 10.4 05:36:32 10° ENE 05:38:09 12° E 05:39:46 10° ESE visible
01 Mar 10.0 18:54:06 10° SW 18:56:03 14° W 18:58:01 10° WNW visible
02 Mar 8.9 18:29:05 10° SSW 18:32:08 29° W 18:35:15 10° NW visible
